Weather Roundup
Issued by NWS Corpus Christi, TX

Home | Current Version | Previous Version | Text Only | Print | Product List | Glossary On
Versions: 1 2 3 4 5 6 7 8 9 10 11 12 13 14 15 16 17 18 19 20 21 22 23 24 25 26 27 28 29 30 31 32 33 34 35 36 37 38 39 40 41 42 43 44 45 46 47 48 49 50
992
ASUS44 KCRP 141710
HRRCRP

SOUTH TEXAS REGIONAL WEATHER ROUNDUP
NATIONAL WEATHER SERVICE CORPUS CHRISTI TX
1100 AM CST SUN FEB 14 2016


TXZ229>244-141800-
...CORPUS CHRISTI AREA OBSERVATIONS...

CITY           SKY/WX    TMP DP  RH WIND       PRES   REMARKS
CORPUS CHRISTI PTSUNNY   75  55  49 S26G36    30.02S
NAS CORPUS CHR SUNNY     74  62  66 S25       30.02F
ROCKPORT       SUNNY     75  61  61 S10G20    30.04R
KINGSVILLE NAS MOSUNNY   75  60  59 S21G29    30.01F
ALICE          PTSUNNY   73  58  59 S21G29    30.01F
FALFURRIAS     PTSUNNY   73  58  59 S20G29    30.01F
$$

...VICTORIA AREA OBSERVATIONS...

CITY           SKY/WX    TMP DP  RH WIND       PRES   REMARKS
VICTORIA       PTSUNNY   72  60  66 S20G32    30.02F
BEEVILLE       CLOUDY    73  61  64 S23G29    30.02S
PLEASANTON     CLOUDY    67  58  72 S15G21    30.02F
SAN ANTONIO    CLOUDY    62  56  80 S14       30.02S
$$

...LAREDO AREA OBSERVATIONS...

CITY           SKY/WX    TMP DP  RH WIND       PRES   REMARKS
LAREDO         SUNNY     71  55  56 S13       29.98F
COTULLA        SUNNY     71  57  61 S14       29.99F
DEL RIO        CLOUDY    62  53  72 CALM      29.98F
MCALLEN        SUNNY     77  56  48 S24G33    30.01F
HEBBRONVILLE   NOT AVBL
$$

...OTHER TEXAS OBSERVATIONS...

CITY           SKY/WX    TMP DP  RH WIND       PRES   REMARKS
BROWNSVILLE    PTSUNNY   75  59  57 S23       30.03F
HOUSTON        PTSUNNY   70  53  54 S10G22    30.05F
COL. STATION   LGT RAIN  69  55  60 S16G29    30.00F
AUSTIN         CLOUDY    65  58  78 S15       30.00F
WACO           CLOUDY    64  54  69 S17G25    29.97F
FORT WORTH     CLOUDY    63  52  67 S13       29.95S
WICHITA FALLS  CLOUDY    60  47  61 NE6       29.91R
LUBBOCK        CLOUDY    55  23  28 NE20G28   30.02S
EL PASO        MOSUNNY   61  14  16 N3        30.06S
$$

...MARINE OBSERVATIONS...

STATION/POSITION TIME  SKY/WX   TEMP    WIND        PRES    VSBY  WAVE   SWELL
                                AIR SEA DIR/SP/G                  HT/PER HT/PER
                 (UTC)          (F)     (DEG/KT/KT) (MB)    (MI)  (FT/S) (FT/S)
PORT ARANSAS     1700            66 65  150/ 14/ 15 1017.5F
BUOY 90 E PORT A 1650            68 63  160/ 14/ 17 1018.1F         6/ 6
BUOY 45 SE BAFFI 1650            68 68  170/ 14/ 16 1017.0F         4/ 6
BUOY 200 E PT IS 1650                                 N/A           4/ 6
BUOY 15 E GALVES 1650            62 60  160/ 10/ 10 1018.6F         3/ 6   2/ 6
$$




USA.gov is the U.S. government's official web portal to all federal, state and local government web resources and services.